Vertical_Velocity
-3 16 -2 -4 -2 -1 1 2 0 2 2 3 -1 1 1 0 4 3 2 -1 0 -2 -8 -0 -2 -2 -1 2 2 -1 -5 -2 -4 -6 -4 -6 0 1 9 -3 6 4 -8 2
12 -2 -4 -0 -1 2 1 1 -2 4 1 8 0 -3 2 0 -4 -4 -4 -1 -0 6 -4 4 -3 6 2 -5 1 -1 -0 0 -1 -0 1 10 -5 -7 -1 -6 -1 0 1 2
4 -18 1 1 1 4 -0 2 0 5 1 3 4 2 4 2 3 4 2 -1 8 -2 -1 1 0 2 -4 2 -3 -1 -2 -1 -2 -0 -1 -2 0 -5 3 7 -5 -6 -4 -5
-5 -8 -1 1 -0 6 3 1 0 0 8 -0 6 4 2 2 3 2 3 1 -0 0 7 -6 1 -0 -1 -1 -2 2 -1 -3 -2 -3 1 -0 0 -5 5 -8 -8 4 0 -1
-23 1 1 4 -12 4 5 1 0 1 1 10 5 11 -4 1 7 2 -0 -3 4 -3 -6 -0 -2 -6 5 0 -3 -1 -0 -1 -2 -0 -3 1 -4 4 -2 4 -3 -9 0 -4
-1 -2 2 -15 -2 -0 2 4 3 3 5 10 -9 8 6 5 -7 3 2 2 6 0 1 4 -5 -4 -0 -0 1 -0 -2 -3 -3 -1 -2 -2 10 -9 15 6 3 -3 -4 -6
4 -0 -1 7 3 6 7 10 1 12 13 -8 -0 6 -1 -7 0 -5 -2 -2 -3 2 -1 -4 -3 3 2 2 -2 -1 -1 -2 -2 -1 0 0 -1 -0 2 4 4 7 7 15
-1 29 4 1 1 -1 -4 4 7 -1 2 -0 1 -0 0 -10 0 -2 1 -0 2 -7 11 -6 -0 8 -2 4 -4 -1 1 2 -0 -1 -1 -1 2 -1 -3 -1 -4 -6 5 26
2 -0 9 3 -1 13 -22 0 -6 9 0 11 -5 16 18 4 5 3 2 1 3 6 6 8 -4 14 1 4 -0 -2 5 0 0 1 0 -2 -0 -3 3 1 -2 -1 -5 -10
-2 8 -1 0 8 -1 20 3 19 1 0 -3 2 -1 5 4 4 3 4 1 0 -3 -6 -10 -4 -5 -4 4 3 -0 5 4 3 -0 -2 -2 5 -3 1 -1 -2 -2 0 -3
2 -9 -5 8 3 -8 8 2 4 3 5 4 0 -9 -4 -5 -5 -1 2 0 -1 2 4 -1 -2 1 6 -1 -6 -1 1 0 -2 5 -0 -2 -1 1 -1 -0 0 -1 -3 -1
-10 1 -0 -15 3 1 3 4 4 8 0 1 6 -1 1 1 -1 -3 1 3 2 -0 -0 1 4 4 1 -4 -4 -5 -2 -6 -5 -3 -0 1 1 -4 -1 2 12 4 -1 -1
-3 -1 -5 -23 25 7 2 -0 0 2 3 -3 8 5 1 0 0 3 -0 2 0 -0 4 5 3 2 2 4 2 0 2 -1 3 -0 7 -0 12 3 3 -2 1 1 -1 1
2 1 -1 -8 1 9 5 0 -0 7 5 -2 -3 6 6 4 0 3 3 1 1 3 -1 1 2 2 0 1 1 1 0 -3 -7 -3 2 -1 -4 -1 -4 -4 -4 2 -2 -2
8 4 2 1 -6 5 1 1 -1 3 -0 13 -9 3 2 -1 -3 -3 -4 1 -0 2 4 1 0 0 -1 -2 -3 -2 -0 -3 -4 -5 -4 -5 -3 -4 -3 -2 -2 -1 0 1
-1 -6 1 -6 -1 1 0 -1 0 -0 -2 0 1 -6 2 3 4 6 -1 -1 -1 0 5 0 0 1 -0 2 1 -2 -1 -3 -2 -6 -1 0 1 1 1 -0 -2 -3 -2 2
5 4 3 -7 1 1 1 -4 -0 -1 0 6 3 9 1 -1 -0 -1 4 -3 0 2 -3 3 -0 -0 6 5 -1 -4 9 -4 0 0 -1 0 2 -0 -2 -1 -0 1 -3 -2
0 2 4 -4 3 6 -3 1 1 3 -0 -0 -1 0 1 1 2 -5 2 6 -5 -4 4 -1 3 7 3 11 9 -1 -2 -3 1 -0 0 -0 -0 -0 1 -0 -3 -5 -0 -1
3 2 -1 9 2 -10 -2 2 0 3 -3 -1 0 1 1 0 -1 2 6 -12 -3 7 -0 0 0 -5 -3 -6 -5 -3 -3 -0 -1 2 2 0 -1 1 -1 -2 0 -1 1 2
1 4 10 2 10 2 1 4 -0 -1 -5 0 -1 0 -1 -1 5 10 1 -2 0 -8 -5 2 6 -3 3 1 3 1 0 3 2 -0 2 7 -1 -2 -1 -1 -2 -2 -1 -3
2 1 3 -1 -0 -8 4 1 -1 12 15 1 1 0 0 2 4 -4 -8 -4 -2 0 -5 -2 -3 -1 3 1 3 -2 -4 -1 -1 -5 -6 -4 -5 -2 -2 -5 -3 -1 1 -1
2 6 -1 2 5 4 -0 4 12 9 1 1 2 1 1 4 -3 -2 -2 -1 -1 -2 -1 -1 2 3 2 -3 -1 -2 -0 5 4 -1 -1 -3 -2 -5 3 4 -1 0 2 2
3 5 8 11 12 2 -1 1 -2 6 -4 2 -1 1 -3 0 3 2 -2 -0 -1 -1 1 -2 -1 -0 -2 10 11 -0 -7 -7 -5 -6 -5 -9 -0 4 -0 -1 -6 -7 0 2
3 -2 2 4 8 1 3 0 3 5 -1 -1 -4 2 -2 -0 -1 -1 -0 -3 -2 -3 1 5 -2 -5 -4 -6 3 -4 -1 4 4 5 1 -2 -7 1 -1 4 7 0 1 1
7 3 -1 -1 4 1 1 3 -2 -1 -1 -0 -1 -2 0 -2 -2 -0 -2 -2 2 0 -5 -6 -4 -2 -3 1 -6 2 10 5 -1 -3 -2 -1 -4 -3 -6 -1 5 8 -7 2
-0 -5 2 4 0 -2 -1 -2 0 0 1 -2 -1 -2 -1 -2 -0 -1 -2 -2 -2 -2 1 -3 -4 -6 -3 -3 -3 -3 -1 1 0 -1 -1 -1 1 4 0 -4 -17 -3 2 -7
Height
1492 1489 1484 1475 1480 1486 1486 1487 1492 1489 1488 1492 1489 1486 1494 1501 1504 1508 1512 1517 1522 1525 1529 1533 1537 1541 1545 1548 1550 1552 1554 1556 1558 1560 1562 1564 1565 1566 1567 1566 1567 1569 1569 1570
1491 1493 1478 1481 1485 1488 1486 1489 1488 1484 1487 1489 1486 1487 1483 1495 1499 1502 1509 1512 1516 1520 1526 1531 1535 1538 1542 1545 1548 1550 1552 1554 1555 1558 1561 1562 1563 1562 1565 1566 1565 1565 1565 1566
1486 1479 1477 1485 1486 1491 1485 1484 1488 1488 1483 1484 1487 1492 1488 1489 1494 1499 1504 1507 1510 1516 1522 1528 1532 1535 1539 1542 1545 1547 1549 1552 1554 1557 1559 1560 1561 1562 1562 1559 1562 1562 1563 1564
1483 1476 1483 1486 1490 1481 1487 1478 1485 1491 1492 1495 1476 1513 1491 1489 1491 1496 1499 1503 1505 1512 1518 1524 1528 1532 1535 1539 1542 1545 1547 1549 1551 1553 1557 1558 1558 1560 1560 1559 1560 1562 1562 1562
1486 1481 1486 1488 1484 1476 1484 1481 1484 1485 1486 1477 1477 1488 1490 1482 1491 1492 1495 1500 1502 1508 1515 1519 1525 1529 1532 1537 1540 1543 1545 1547 1549 1550 1553 1556 1558 1558 1559 1560 1560 1560 1560 1560
1478 1478 1481 1479 1474 1481 1480 1483 1482 1482 1482 1493 1470 1474 1491 1498 1484 1487 1491 1495 1498 1503 1510 1516 1522 1526 1530 1535 1539 1542 1543 1544 1546 1548 1550 1551 1554 1556 1557 1558 1559 1559 1559 1558
1483 1482 1479 1476 1480 1480 1483 1485 1496 1500 1492 1490 1455 1471 1503 1505 1482 1482 1492 1496 1498 1501 1506 1514 1519 1523 1528 1532 1536 1540 1541 1542 1543 1546 1548 1549 1551 1553 1555 1555 1557 1557 1557 1556
1486 1496 1478 1476 1478 1477 1476 1477 1483 1514 1503 1524 1466 1484 1503 1489 1482 1489 1494 1495 1496 1500 1502 1511 1516 1521 1527 1531 1534 1538 1540 1541 1542 1543 1546 1548 1549 1551 1552 1553 1552 1552 1554 1554
1471 1476 1462 1468 1470 1475 1476 1485 1462 1471 1478 1507 1493 1467 1477 1479 1484 1490 1494 1497 1497 1499 1503 1510 1517 1521 1526 1530 1533 1536 1539 1540 1541 1543 1545 1546 1547 1547 1549 1551 1550 1550 1550 1550
1461 1477 1462 1466 1472 1472 1471 1464 1478 1471 1512 1505 1514 1531 1485 1485 1487 1489 1495 1499 1503 1507 1510 1515 1520 1523 1526 1529 1532 1534 1537 1539 1540 1542 1544 1545 1546 1545 1548 1548 1548 1547 1547 1546
1459 1478 1475 1470 1473 1471 1475 1476 1468 1470 1487 1495 1526 1526 1484 1459 1464 1480 1492 1501 1505 1508 1512 1517 1521 1524 1526 1529 1531 1533 1536 1537 1539 1541 1542 1542 1543 1545 1546 1546 1546 1545 1545 1544
1464 1464 1481 1469 1461 1464 1463 1466 1466 1473 1484 1473 1483 1481 1468 1448 1474 1476 1494 1501 1506 1510 1515 1520 1523 1525 1528 1530 1532 1534 1535 1537 1539 1540 1541 1542 1543 1543 1545 1545 1546 1545 1544 1542
1463 1468 1526 1495 1469 1467 1471 1466 1468 1466 1464 1481 1490 1501 1468 1471 1480 1493 1499 1505 1510 1514 1518 1521 1524 1527 1530 1531 1533 1534 1536 1537 1539 1541 1542 1542 1543 1543 1544 1544 1543 1542 1541 1539
1474 1463 1473 1526 1530 1502 1478 1477 1474 1476 1484 1477 1470 1480 1474 1479 1488 1498 1504 1509 1513 1517 1521 1523 1526 1528 1530 1532 1533 1535 1536 1537 1538 1540 1541 1541 1541 1541 1540 1539 1538 1537 1536 1535
1473 1475 1469 1492 1500 1490 1477 1478 1477 1481 1481 1491 1479 1473 1468 1475 1485 1495 1505 1512 1517 1520 1522 1525 1527 1529 1531 1532 1534 1535 1536 1536 1538 1538 1539 1538 1537 1536 1534 1534 1533 1532 1531 1529
1469 1481 1478 1488 1471 1476 1484 1478 1477 1477 1478 1482 1482 1482 1472 1475 1482 1491 1501 1513 1518 1521 1523 1526 1528 1529 1531 1533 1534 1535 1535 1536 1536 1536 1535 1534 1532 1530 1529 1527 1526 1525 1524 1522
1471 1470 1480 1490 1472 1475 1490 1476 1474 1473 1476 1480 1489 1483 1482 1484 1488 1493 1499 1508 1516 1520 1524 1526 1528 1529 1531 1532 1533 1533 1533 1533 1533 1532 1531 1529 1527 1525 1523 1521 1519 1517 1516 1515
1474 1480 1481 1488 1482 1505 1471 1475 1479 1482 1480 1483 1485 1488 1491 1492 1494 1498 1502 1507 1517 1520 1523 1526 1527 1528 1530 1530 1531 1531 1531 1530 1529 1528 1526 1524 1522 1520 1517 1515 1512 1511 1509 1508
1472 1478 1486 1493 1489 1479 1470 1472 1480 1483 1481 1485 1486 1492 1495 1498 1499 1501 1506 1513 1517 1519 1522 1525 1526 1527 1528 1528 1528 1528 1527 1526 1524 1522 1520 1518 1516 1513 1511 1508 1505 1503 1501 1499
1474 1476 1486 1488 1497 1500 1473 1475 1478 1483 1492 1483 1490 1494 1498 1501 1500 1502 1509 1514 1517 1520 1522 1523 1523 1524 1524 1524 1524 1522 1521 1519 1517 1516 1514 1511 1509 1506 1502 1499 1497 1495 1493 1491
1479 1485 1487 1480 1486 1477 1470 1479 1483 1500 1499 1490 1491 1495 1499 1501 1507 1513 1515 1517 1518 1519 1520 1520 1521 1521 1520 1519 1518 1516 1515 1513 1511 1509 1506 1504 1501 1498 1494 1490 1488 1486 1484 1482
1484 1486 1480 1473 1486 1490 1479 1483 1488 1493 1495 1496 1497 1500 1503 1506 1511 1514 1516 1517 1518 1518 1518 1517 1516 1515 1515 1514 1513 1510 1508 1507 1504 1502 1499 1496 1493 1490 1487 1482 1479 1477 1474 1473
1487 1478 1481 1483 1486 1489 1489 1489 1492 1493 1498 1501 1504 1506 1509 1511 1513 1515 1516 1517 1516 1516 1515 1514 1513 1511 1510 1509 1506 1502 1499 1498 1496 1494 1490 1488 1485 1482 1478 1474 1471 1469 1467 1465
1477 1482 1485 1485 1485 1489 1492 1495 1496 1498 1502 1506 1508 1510 1512 1514 1515 1515 1515 1515 1514 1513 1512 1510 1508 1506 1504 1503 1501 1498 1495 1491 1488 1485 1483 1481 1477 1474 1471 1468 1466 1463 1461 1458
1478 1483 1482 1483 1489 1494 1496 1497 1501 1504 1507 1509 1511 1513 1514 1514 1514 1514 1514 1513 1511 1510 1508 1506 1504 1501 1498 1496 1492 1490 1487 1483 1480 1478 1476 1472 1470 1467 1464 1460 1458 1456 1453 1453
1474 1478 1481 1479 1483 1490 1493 1500 1503 1507 1509 1512 1512 1513 1514 1514 1513 1512 1511 1510 1508 1505 1503 1501 1498 1495 1492 1488 1485 1483 1481 1477 1473 1470 1468 1465 1462 1459 1457 1454 1450 1448 1446 1443